カタログに戻る

STARLINK-35112

運用中通信SSO
NORAD 65520·PAYLOAD·🇺🇸 United States

打ち上げ Sep 6, 2025 から Cape Canaveral Space Force Station

Loading…

次のパス (今後24時間)

TLE

最新Source: CelesTrak SupGP

元期: Sep 14, 2026, 21:25 UTC

1 65520C 25200A   26257.89284722 -.00028731  00000+0 -89188-3 0  2577
2 65520  97.2857 324.4272 0000814  86.9302  30.4522 15.33454232    12

AllMySatでSTARLINK-35112をリアルタイム追跡

Download on the App Store